User: anonymous   Login
Location: Oshawa
(43.9000°N, 78.8670°W)
Time: 15:11:26
(UTC-04:00)
Language:

Cosmos 1821 Rocket - Orbit

View from above orbital plane
View from above orbital plane
View from above satellite
View from above satellite

Ground track
Ground track

The orbit data is extracted from the following two-line orbital elements,

1 17526U 87017B   17174.94490159 +.00000087 +00000-0 +73045-4 0  9993
2 17526 082.9024 035.1855 0039140 299.4239 060.3014 13.76803994507028
Epoch (UTC): 23 June 2017 22:40:39
Eccentricity: 0.0039140
inclination: 82.9024°
perigee height: 946 km
apogee height: 1004 km
right ascension of ascending node: 35.1855°
argument of perigee: 299.4239°
revolutions per day: 13.76803994
mean anomaly at epoch: 60.3014°
orbit number at epoch: 50702

The dashed part of the orbit path shows where the satellite is in the earth's shadow,  

DLR